�N����,����,����,����,����,�C��,���x,�~����,�S�V����,�ő�u�ԕ���,,,,,
,,,,,,,,,����,����,����,�N��,,
yyyy/mm/dd,hh:mm:ss,(16),16����,m/s,��,%,mm,KW/�u,(16),16����,m/s,Time,,
2017/1/1,1:00:00,12,��,1.8,-15.3,88.9,0,0,12,��,3.2,5,,
2017/1/1,2:00:00,12,��,2.6,-16.6,88.5,0,0,12,��,4.7,38,,
2017/1/1,3:00:00,12,��,2.2,-16.7,88.4,0,0,12,��,3.4,2,,
2017/1/1,4:00:00,13,���k��,2.5,-16.3,88.5,0,0,12,��,5.3,22,,
2017/1/1,5:00:00,13,���k��,1.1,-17.8,86.1,0,0,9,��쐼,3.5,12,,
2017/1/1,6:00:00,12,��,1.8,-19.9,85.4,0,0.01,11,���쐼,2.6,59,,
2017/1/1,7:00:00,12,��,2.2,-18.4,86.1,0,0.01,11,���쐼,3.5,59,,
2017/1/1,8:00:00,13,���k��,1.4,-16.3,89.7,0,0.1,12,��,3.9,6,,
2017/1/1,9:00:00,12,��,1.6,-14.1,80.2,0,0.27,12,��,2.5,59,,
2017/1/1,10:00:00,1,�k�k��,0.3,-8.6,49.8,0,0.42,2,�k��,7.4,44,,
2017/1/1,11:00:00,16,�É�,0,-3.7,31.6,0,0.47,16,�É�,0,0,,
2017/1/1,12:00:00,16,�É�,0,-1.6,30,0,0.48,16,�É�,0,0,,
2017/1/1,13:00:00,2,�k��,0.9,-3.1,43.2,0,0.31,1,�k�k��,1.5,52,,
2017/1/1,14:00:00,16,�É�,0,-4.1,46.6,0,0.23,2,�k��,1.4,5,,
2017/1/1,15:00:00,16,�É�,0.1,-4.4,51,0,0.21,4,��,1.3,33,,
2017/1/1,16:00:00,10,�쐼,0.7,-7.9,60.5,0,0.08,11,���쐼,2.1,54,,
2017/1/1,17:00:00,13,���k��,1.2,-10.6,73.8,0,0.01,11,���쐼,2.5,2,,
2017/1/1,18:00:00,12,��,2.4,-10.4,83.7,0,0,12,��,3,57,,
2017/1/1,19:00:00,12,��,0.5,-11.1,87.5,0,0,11,���쐼,2.7,0,,
2017/1/1,20:00:00,13,���k��,0.7,-12.6,89.7,0,0,12,��,4,31,,
2017/1/1,21:00:00,13,���k��,1.3,-14,90.2,0,0,12,��,3.4,17,,
2017/1/1,22:00:00,13,���k��,1.5,-13,91.9,0,0,13,���k��,3.4,19,,
2017/1/1,23:00:00,12,��,2.9,-13.6,90.8,0,0,12,��,3.7,49,,
2017/1/1,0:00:00,13,���k��,2.6,-12.4,93.1,0,0,12,��,4.3,37,,
2017/1/2,1:00:00,13,���k��,1,-12.6,91,0,0,12,��,3.9,12,,
2017/1/2,2:00:00,12,��,1.9,-14.4,88.4,0,0,12,��,4.1,15,,
2017/1/2,3:00:00,12,��,2.5,-13.7,86.4,0,0,8,��,5.4,31,,
2017/1/2,4:00:00,12,��,2.8,-14,88.6,0,0,12,��,7.2,27,,
2017/1/2,5:00:00,12,��,1.9,-14.7,89,0,0.01,12,��,5.8,4,,
2017/1/2,6:00:00,12,��,1.7,-13.9,90.2,0,0,12,��,3.8,26,,
2017/1/2,7:00:00,12,��,1.2,-14.5,88.6,0,0.01,12,��,4,4,,
2017/1/2,8:00:00,12,��,2.5,-13.2,91.9,0,0.06,13,���k��,3.5,48,,
2017/1/2,9:00:00,12,��,2.3,-10.8,82.3,0,0.24,12,��,3.9,37,,
2017/1/2,10:00:00,12,��,2,-9.6,72.4,0,0.26,12,��,3.1,4,,
2017/1/2,11:00:00,13,���k��,0.8,-5.7,58.8,0,0.41,12,��,2.7,3,,
2017/1/2,12:00:00,16,�É�,0,-0.8,37.1,0,0.5,12,��,1.1,27,,
2017/1/2,13:00:00,3,���k��,1.5,0.1,38.7,0,0.45,2,�k��,2.7,47,,
2017/1/2,14:00:00,16,�É�,0,-0.5,55.2,0.5,0.26,2,�k��,2.1,9,,
2017/1/2,15:00:00,6,�쓌,0.8,-4.8,54.5,0,0.16,7,��쓌,1.2,58,,
2017/1/2,16:00:00,16,�É�,0,-5.5,70,0.5,0.05,2,�k��,1,39,,
2017/1/2,17:00:00,12,��,1.4,-9.9,75.3,0,0.01,12,��,2.4,49,,
2017/1/2,18:00:00,12,��,1.2,-10.1,84.6,0,0,12,��,2.2,12,,
2017/1/2,19:00:00,13,���k��,0.9,-10.4,89.7,0,0,12,��,2.5,6,,
2017/1/2,20:00:00,12,��,2.5,-8.4,94.4,0,0,10,�쐼,3.6,58,,
2017/1/2,21:00:00,12,��,2.4,-11.8,88.7,0,0,12,��,4.1,34,,
2017/1/2,22:00:00,13,���k��,2.7,-10.1,93.2,0,0,12,��,3.7,52,,
2017/1/2,23:00:00,13,���k��,1.2,-10,93.5,0,0,13,���k��,4,27,,
2017/1/2,0:00:00,13,���k��,2.9,-8,95.9,0,0,12,��,5,51,,
2017/1/3,1:00:00,12,��,1.2,-7.6,92.5,0,0,1,�k�k��,4.4,13,,
2017/1/3,2:00:00,11,���쐼,1.4,-7.2,90.3,0,0,12,��,2.5,14,,
2017/1/3,3:00:00,13,���k��,3.2,-5.9,91.9,0,0,13,���k��,4.3,59,,
2017/1/3,4:00:00,13,���k��,2.6,-6,83.6,0,0,13,���k��,4.6,0,,
2017/1/3,5:00:00,13,���k��,2.4,-6.9,78.1,0,0,14,�k��,4.9,12,,
2017/1/3,6:00:00,12,��,1.6,-10.6,80,0,0,4,��,3.9,4,,
2017/1/3,7:00:00,12,��,1.6,-11.6,86.1,0,0.01,12,��,4,21,,
2017/1/3,8:00:00,12,��,2.2,-10.5,87.9,0,0.05,12,��,3.6,23,,
2017/1/3,9:00:00,12,��,2,-8.2,73.6,0,0.19,13,���k��,2.9,55,,
2017/1/3,10:00:00,14,�k��,1.3,-3.2,60.6,0,0.34,12,��,3.2,21,,
2017/1/3,11:00:00,13,���k��,0.8,-3.9,36.8,0,0.42,14,�k��,1.9,18,,
2017/1/3,12:00:00,3,���k��,0.8,1.5,32.9,0,0.46,2,�k��,1.4,28,,
2017/1/3,13:00:00,5,���쓌,1.8,0.5,41.8,0,0.43,4,��,3.4,29,,
2017/1/3,14:00:00,6,�쓌,1.5,0.1,49.1,0,0.27,6,�쓌,2.4,54,,
2017/1/3,15:00:00,7,��쓌,1,-0.5,60.1,0.5,0.15,6,�쓌,2.1,5,,
2017/1/3,16:00:00,12,��,0.4,-3.9,69.7,0,0.05,7,��쓌,1.5,1,,
2017/1/3,17:00:00,12,��,1.1,-8.5,78.5,0,0.01,12,��,1.4,52,,
2017/1/3,18:00:00,12,��,1.9,-10.2,78,0,0,12,��,2.4,52,,
2017/1/3,19:00:00,12,��,1.6,-9.2,91.6,0,0,12,��,2.7,32,,
2017/1/3,20:00:00,12,��,1.4,-8.5,92.4,0,0,13,���k��,2.9,37,,
2017/1/3,21:00:00,12,��,0.9,-8.9,85.7,0,0,13,���k��,3.6,8,,
2017/1/3,22:00:00,12,��,0.7,-10.6,87,0,0,11,���쐼,2.4,5,,
2017/1/3,23:00:00,12,��,1,-12,89.5,0,0,13,���k��,2.9,20,,
2017/1/3,0:00:00,12,��,2.2,-9.3,94.1,0,0,6,�쓌,4.6,26,,
2017/1/4,1:00:00,12,��,1.4,-7.8,94.5,0,0,13,���k��,2.6,8,,
2017/1/4,2:00:00,13,���k��,2.6,-5.6,91.2,0,0,13,���k��,4.5,44,,
2017/1/4,3:00:00,12,��,2.1,-6.6,79.9,0,0,14,�k��,8.2,27,,
2017/1/4,4:00:00,12,��,1.5,-7.3,79,0,0,13,���k��,2.7,2,,
2017/1/4,5:00:00,13,���k��,2.7,-5.6,82,0,0,12,��,4.5,49,,
2017/1/4,6:00:00,13,���k��,3.3,-5.3,80.5,0,0,4,��,4.9,52,,
2017/1/4,7:00:00,13,���k��,2.5,-5.1,79.8,0,0.01,13,���k��,4.3,25,,
2017/1/4,8:00:00,13,���k��,1.9,-5.7,76.6,0,0.04,16,�k,3.7,11,,
2017/1/4,9:00:00,13,���k��,2.9,-5.1,68.2,0,0.15,5,���쓌,3.8,14,,
2017/1/4,10:00:00,13,���k��,2.1,-4,66.8,0,0.25,12,��,4.9,9,,
2017/1/4,11:00:00,14,�k��,2.1,-2.4,58,0,0.33,13,���k��,2.8,44,,
2017/1/4,12:00:00,12,��,1.7,-1.2,59.7,0,0.31,13,���k��,2.8,43,,
2017/1/4,13:00:00,4,��,1.5,-0.3,54.9,0,0.3,4,��,2.2,54,,
2017/1/4,14:00:00,3,���k��,2.6,-0.8,70.3,0,0.23,4,��,3.7,49,,
2017/1/4,15:00:00,3,���k��,1.9,-1.3,77.3,0,0.11,3,���k��,3.4,0,,
2017/1/4,16:00:00,1,�k�k��,1.5,-1.6,84.4,0,0.03,3,���k��,2.7,1,,
2017/1/4,17:00:00,14,�k��,1.9,-2.2,85,0,0.01,14,�k��,3.1,44,,
2017/1/4,18:00:00,14,�k��,1.5,-2.4,88.2,0,0,14,�k��,2.8,46,,
2017/1/4,19:00:00,14,�k��,1.9,-2.8,87.8,0,0,13,���k��,3,40,,
2017/1/4,20:00:00,14,�k��,1.3,-2.7,88.9,0,0,14,�k��,3,12,,
2017/1/4,21:00:00,13,���k��,1.3,-2.8,89.4,0,0,1,�k�k��,2.5,48,,
2017/1/4,22:00:00,14,�k��,1.3,-2.9,90.3,0,0,13,���k��,3.1,0,,
2017/1/4,23:00:00,14,�k��,1.5,-2.9,89.2,0,0,13,���k��,2.7,43,,
2017/1/4,0:00:00,1,�k�k��,2.3,-2.7,87.4,0,0,16,�k,4.2,27,,
2017/1/5,1:00:00,14,�k��,2.6,-3.7,89.1,0,0,13,���k��,5.1,54,,
2017/1/5,2:00:00,13,���k��,3.8,-3.6,88.2,0,0,13,���k��,6.1,38,,
2017/1/5,3:00:00,13,���k��,2.5,-3.7,88,0,0,12,��,5.4,21,,
2017/1/5,4:00:00,14,�k��,2.3,-3.5,81.5,0,0,13,���k��,4.8,6,,
2017/1/5,5:00:00,14,�k��,1.5,-3.8,79,0,0,14,�k��,3.8,0,,
2017/1/5,6:00:00,14,�k��,1.7,-4.2,80.6,0,0,12,��,2.8,7,,
2017/1/5,7:00:00,14,�k��,2.3,-3.8,81,0,0,14,�k��,5.3,58,,
2017/1/5,8:00:00,15,�k�k��,2.1,-3.8,72.4,0,0.04,14,�k��,6.8,20,,
2017/1/5,9:00:00,1,�k�k��,4,-3.9,57.2,0,0.19,1,�k�k��,8,39,,
2017/1/5,10:00:00,14,�k��,2.6,-3.6,46.1,0,0.37,1,�k�k��,7.3,3,,
2017/1/5,11:00:00,14,�k��,2.5,-3.5,46.9,0,0.48,13,���k��,6.1,38,,
2017/1/5,12:00:00,14,�k��,2.4,-3.4,48.5,0,0.48,1,�k�k��,6.6,33,,
2017/1/5,13:00:00,15,�k�k��,3.7,-2.9,45.2,0,0.47,14,�k��,8.7,59,,
2017/1/5,14:00:00,15,�k�k��,5.5,-2.8,36.4,0,0.4,6,�쓌,11.3,49,,
2017/1/5,15:00:00,13,���k��,6.2,-3.7,38.6,0,0.27,4,��,12.2,58,,
2017/1/5,16:00:00,14,�k��,3.4,-4.9,41.1,0,0.09,12,��,9.1,40,,
2017/1/5,17:00:00,16,�k,4,-5.6,47.4,0,0.01,14,�k��,8.1,25,,
2017/1/5,18:00:00,15,�k�k��,4.8,-5.9,49.7,0,0,14,�k��,10.1,32,,
2017/1/5,19:00:00,13,���k��,3.5,-7.1,50.7,0,0,12,��,7.1,56,,
2017/1/5,20:00:00,13,���k��,4.3,-7.4,52,0,0,13,���k��,7.3,42,,
2017/1/5,21:00:00,12,��,3.4,-9.2,53.3,0,0,14,�k��,7.1,26,,
2017/1/5,22:00:00,12,��,3.1,-9.9,55.1,0,0,12,��,5.4,27,,
2017/1/5,23:00:00,12,��,2.9,-10.1,58.4,0,0,16,�k,4.8,38,,
2017/1/5,0:00:00,7,��쓌,1.6,-13,61.4,0,0,11,���쐼,3.8,7,,
2017/1/6,1:00:00,12,��,3.7,-9.6,74.6,0,0,12,��,6.1,43,,
2017/1/6,2:00:00,13,���k��,2.6,-10.8,63.3,0,0,14,�k��,5.6,23,,
2017/1/6,3:00:00,12,��,2.2,-13.2,61.9,0,0,16,�k,3.9,17,,
2017/1/6,4:00:00,12,��,1.9,-11.7,65.5,0,0,6,�쓌,7,50,,
2017/1/6,5:00:00,6,�쓌,0.8,-16.8,60.6,0,0.01,2,�k��,5.1,2,,
2017/1/6,6:00:00,8,��,1.2,-18.9,67,0,0.01,10,�쐼,7.8,41,,
2017/1/6,7:00:00,10,�쐼,1.4,-18.9,77.4,0,0.01,12,��,2.9,45,,
2017/1/6,8:00:00,9,��쐼,1.6,-18.8,78.5,0,0.09,10,�쐼,2.2,32,,
2017/1/6,9:00:00,8,��,1,-14.6,45.7,0,0.27,10,�쐼,2.4,17,,
2017/1/6,10:00:00,11,���쐼,0.7,-6.1,33.6,0,0.41,10,�쐼,1.6,10,,
2017/1/6,11:00:00,8,��,0.7,-5.7,26.7,0,0.5,9,��쐼,2.8,58,,
2017/1/6,12:00:00,10,�쐼,2.1,-4.4,21.9,0,0.53,10,�쐼,3.8,52,,
2017/1/6,13:00:00,10,�쐼,2.7,-3.9,28.8,0,0.5,10,�쐼,4.8,48,,
2017/1/6,14:00:00,10,�쐼,2.8,-3.3,40.9,0,0.41,8,��,5.7,42,,
2017/1/6,15:00:00,10,�쐼,1.8,-4.2,46,0,0.27,10,�쐼,3.9,23,,
2017/1/6,16:00:00,12,��,0.7,-7.9,58.5,0,0.09,10,�쐼,2.2,2,,
2017/1/6,17:00:00,12,��,1.4,-11.6,65.1,0,0.01,12,��,1.7,55,,
2017/1/6,18:00:00,12,��,1.4,-12.1,80.7,0,0,12,��,2.5,48,,
2017/1/6,19:00:00,13,���k��,3.1,-10.9,84.6,0,0,13,���k��,3.9,58,,
2017/1/6,20:00:00,13,���k��,0.9,-11.6,83,0,0,13,���k��,4.8,39,,
2017/1/6,21:00:00,12,��,2.9,-12.1,80.7,0,0,13,���k��,4,54,,
2017/1/6,22:00:00,12,��,2.4,-13.5,82,0,0,12,��,3.5,15,,
2017/1/6,23:00:00,12,��,3.3,-13.8,81.2,0,0,1,�k�k��,4.3,34,,
2017/1/6,0:00:00,13,���k��,2.9,-14,82.9,0,0,12,��,4.8,11,,
2017/1/7,1:00:00,12,��,2.8,-15,84,0,0,12,��,3.9,41,,
2017/1/7,2:00:00,11,���쐼,1.1,-14.9,84.1,0,0,12,��,3,28,,
2017/1/7,3:00:00,12,��,1.5,-16.8,80.2,0,0,12,��,3.1,58,,
2017/1/7,4:00:00,12,��,2,-16.5,86.5,0,0,12,��,2.8,26,,
2017/1/7,5:00:00,12,��,2.4,-17.5,83.8,0,0,13,���k��,3.4,42,,
2017/1/7,6:00:00,12,��,3.4,-19,81.2,0,0.01,12,��,3.8,58,,
2017/1/7,7:00:00,12,��,2.2,-18.2,87.6,0,0.01,12,��,3.6,0,,
2017/1/7,8:00:00,12,��,1.7,-14.1,88.7,0,0.09,12,��,3.8,46,,
2017/1/7,9:00:00,13,���k��,2.4,-11.3,67.3,0,0.26,13,���k��,3.1,52,,
2017/1/7,10:00:00,12,��,1.7,-9.7,47.6,0,0.4,11,���쐼,3,7,,
2017/1/7,11:00:00,12,��,0.8,-4,33.6,0,0.5,11,���쐼,2.1,31,,
2017/1/7,12:00:00,16,�É�,0.1,0.6,30.8,0,0.53,2,�k��,0.8,24,,
2017/1/7,13:00:00,6,�쓌,0.9,-0.3,32.2,0,0.5,4,��,1.8,29,,
2017/1/7,14:00:00,7,��쓌,0.7,0.2,39.2,0,0.41,7,��쓌,2.5,12,,
2017/1/7,15:00:00,16,�É�,0.1,-0.4,43.7,0,0.27,5,���쓌,1.4,5,,
2017/1/7,16:00:00,16,�É�,0,-4.7,62.7,0,0.09,1,�k�k��,1,35,,
2017/1/7,17:00:00,16,�É�,0.1,-8.9,73.4,0,0.01,3,���k��,1.7,3,,
2017/1/7,18:00:00,12,��,1.4,-11.4,76.4,0,0,11,���쐼,2.3,58,,
2017/1/7,19:00:00,12,��,1.9,-10.1,87.6,0,0,12,��,2.6,51,,
2017/1/7,20:00:00,13,���k��,3.3,-4.6,84.7,0,0,10,�쐼,4.3,54,,
2017/1/7,21:00:00,13,���k��,2,-11.6,68.7,0,0,13,���k��,4.8,14,,
2017/1/7,22:00:00,13,���k��,2.8,-11.6,84.1,0,0,6,�쓌,4.9,37,,
2017/1/7,23:00:00,12,��,2.5,-13.4,84.5,0,0,6,�쓌,4.5,50,,
2017/1/7,0:00:00,14,�k��,3.6,-3.3,79.2,0,0,12,��,8.1,44,,
2017/1/8,1:00:00,16,�k,1.5,-3.2,66.1,0,0,1,�k�k��,6,25,,
2017/1/8,2:00:00,1,�k�k��,1.6,-6.7,73.7,0,0,1,�k�k��,2.8,58,,
2017/1/8,3:00:00,15,�k�k��,1.6,-4.4,75.8,0,0,14,�k��,4.6,52,,
2017/1/8,4:00:00,16,�k,3.6,-3.7,62.5,0,0,1,�k�k��,7.9,51,,
2017/1/8,5:00:00,16,�k,2.7,-4.5,58.5,0,0,16,�k,8.7,14,,
2017/1/8,6:00:00,13,���k��,1.3,-11.9,54.2,0,0,15,�k�k��,4.9,2,,
2017/1/8,7:00:00,11,���쐼,1.5,-14.3,62.2,0,0.01,12,��,2.4,1,,
2017/1/8,8:00:00,12,��,2.7,-12.5,83.7,0,0.09,12,��,3.7,58,,
2017/1/8,9:00:00,13,���k��,2.2,-6.6,59.5,0,0.26,12,��,4.4,9,,
2017/1/8,10:00:00,12,��,1.3,-7.1,38.8,0,0.4,12,��,3,1,,
2017/1/8,11:00:00,12,��,0.6,-3.2,32.3,0,0.5,13,���k��,2.1,24,,
2017/1/8,12:00:00,16,�É�,0,-0.3,24,0,0.54,4,��,1,27,,
2017/1/8,13:00:00,5,���쓌,1.5,-2.2,27.2,0,0.51,6,�쓌,2.6,59,,
2017/1/8,14:00:00,7,��쓌,1.4,-2.5,35.3,0,0.42,5,���쓌,3.3,9,,
2017/1/8,15:00:00,7,��쓌,1.2,-3.1,37.1,0,0.28,7,��쓌,2.1,49,,
2017/1/8,16:00:00,8,��,0.6,-7.4,48.4,0,0.1,7,��쓌,1.9,19,,
2017/1/8,17:00:00,12,��,0.8,-11.2,57.7,0,0.01,10,�쐼,1.7,9,,
2017/1/8,18:00:00,12,��,1.3,-12.1,62.9,0,0,11,���쐼,2.1,59,,
2017/1/8,19:00:00,12,��,0.7,-12.1,81.4,0,0,12,��,2.6,13,,
2017/1/8,20:00:00,12,��,1,-10.3,86.3,0,0,9,��쐼,3.2,30,,
2017/1/8,21:00:00,12,��,1.9,-9.5,83,0,0,12,��,3.7,40,,
2017/1/8,22:00:00,13,���k��,1.8,-8.8,80.2,0,0,12,��,2.8,1,,
2017/1/8,23:00:00,12,��,1,-7.3,81.9,0,0,12,��,2.5,31,,
2017/1/8,0:00:00,13,���k��,1.8,-6.8,75.3,0,0,14,�k��,3.2,49,,
2017/1/9,1:00:00,13,���k��,2.5,-6.6,72.9,0,0,13,���k��,4.7,41,,
2017/1/9,2:00:00,13,���k��,3,-7,72.3,0,0,12,��,4.5,58,,
2017/1/9,3:00:00,14,�k��,2.5,-7.1,74,0,0,13,���k��,5.6,4,,
2017/1/9,4:00:00,14,�k��,2.4,-6.8,74.5,0,0,13,���k��,4.7,45,,
2017/1/9,5:00:00,13,���k��,2,-6.5,72.5,0,0,14,�k��,4.1,24,,
2017/1/9,6:00:00,13,���k��,2.5,-5.8,72.3,0,0,12,��,4.6,51,,
2017/1/9,7:00:00,13,���k��,2.5,-5.6,72.7,0,0,13,���k��,4.5,48,,
2017/1/9,8:00:00,13,���k��,2.9,-5.5,72.5,0,0.01,13,���k��,6.5,35,,
2017/1/9,9:00:00,12,��,3.9,-5,78.5,0,0.04,13,���k��,6.4,44,,
2017/1/9,10:00:00,14,�k��,2.9,-4.8,82.1,0,0.11,14,�k��,6.4,19,,
2017/1/9,11:00:00,11,���쐼,2.2,-4.4,83.2,0,0.1,13,���k��,5.4,1,,
2017/1/9,12:00:00,13,���k��,3.6,-4.3,80,0,0.14,12,��,6.3,20,,
2017/1/9,13:00:00,13,���k��,2.8,-3.8,80.3,0,0.09,13,���k��,5.9,5,,
2017/1/9,14:00:00,13,���k��,2.8,-3.2,81.2,0,0.09,13,���k��,5.8,17,,
2017/1/9,15:00:00,13,���k��,2.6,-2.8,79.7,0,0.06,13,���k��,3.9,59,,
2017/1/9,16:00:00,13,���k��,2.6,-3,82.9,0,0.03,16,�k,4.2,53,,
2017/1/9,17:00:00,14,�k��,1.4,-3.1,85,0,0.01,14,�k��,4.2,23,,
2017/1/9,18:00:00,13,���k��,1.8,-3.2,88.2,0,0,14,�k��,4.6,24,,
2017/1/9,19:00:00,13,���k��,3.2,-3.3,91,0,0,13,���k��,4.8,49,,
2017/1/9,20:00:00,13,���k��,2.9,-3.2,92.8,0,0,13,���k��,4.7,49,,
2017/1/9,21:00:00,14,�k��,1.3,-3,93.8,0,0,14,�k��,3.9,13,,
2017/1/9,22:00:00,14,�k��,1.5,-2.9,93.8,0,0,15,�k�k��,18.6,16,,
2017/1/9,23:00:00,14,�k��,1.6,-2.7,94,0,0,14,�k��,4.3,28,,
2017/1/9,0:00:00,13,���k��,3.5,-2.9,93.3,0,0,2,�k��,5.6,36,,
2017/1/10,1:00:00,13,���k��,3.5,-3,93.4,0,0,13,���k��,6.1,19,,
2017/1/10,2:00:00,14,�k��,3,-2.6,90.7,0,0,14,�k��,4.7,4,,
2017/1/10,3:00:00,13,���k��,3.2,-2.6,90.6,0,0,13,���k��,5.8,38,,
2017/1/10,4:00:00,12,��,1.9,-6.6,88,0,0,13,���k��,4.1,4,,
2017/1/10,5:00:00,13,���k��,2.5,-5.8,93,0,0,15,�k�k��,3.6,23,,
2017/1/10,6:00:00,13,���k��,2.3,-10.4,92.6,0,0,13,���k��,4.1,47,,
2017/1/10,7:00:00,13,���k��,2.3,-12.2,90.2,0,0.01,13,���k��,3.1,59,,
2017/1/10,8:00:00,14,�k��,2.7,-10.4,96.5,0,0.08,14,�k��,4.2,55,,
2017/1/10,9:00:00,13,���k��,2,-5.7,67.9,0,0.24,13,���k��,3.5,14,,
2017/1/10,10:00:00,11,���쐼,1.7,-4.3,42.1,0,0.4,10,�쐼,4.2,59,,
2017/1/10,11:00:00,13,���k��,1.3,-2.1,30.5,0,0.5,10,�쐼,3,0,,
2017/1/10,12:00:00,12,��,4.3,-0.9,24.5,0,0.54,11,���쐼,7.9,47,,
2017/1/10,13:00:00,11,���쐼,6.4,-1.2,32.7,0.5,0.51,11,���쐼,11.6,44,,
2017/1/10,14:00:00,11,���쐼,6,-1.3,32.4,0,0.42,11,���쐼,10.1,25,,
2017/1/10,15:00:00,12,��,2.4,-2.5,32.8,0,0.23,11,���쐼,7.4,13,,
2017/1/10,16:00:00,12,��,1.3,-4.8,38.2,0,0.05,13,���k��,3.7,20,,
2017/1/10,17:00:00,14,�k��,1,-9,45.4,0,0.01,11,���쐼,2.3,11,,
2017/1/10,18:00:00,12,��,1.1,-8.5,55.1,0,0,11,���쐼,2.3,27,,
2017/1/10,19:00:00,12,��,2.5,-9.7,60.6,0,0,5,���쓌,3.7,48,,
2017/1/10,20:00:00,12,��,1.4,-12.8,63.8,0,0,13,���k��,3.7,4,,
2017/1/10,21:00:00,15,�k�k��,0.8,-15.7,68.7,0,0,14,�k��,4.2,3,,
2017/1/10,22:00:00,13,���k��,1.6,-18,75.7,0,0,11,���쐼,3.5,28,,
2017/1/10,23:00:00,13,���k��,1.8,-17.1,76.4,0,0,11,���쐼,4.2,49,,
2017/1/10,0:00:00,15,�k�k��,0.5,-17.2,77.8,0,0,11,���쐼,3.1,25,,
2017/1/11,1:00:00,13,���k��,2.3,-17.5,82.4,0,0,13,���k��,3.8,17,,
2017/1/11,2:00:00,12,��,1.7,-21.5,76.5,0,0,11,���쐼,3.4,6,,
2017/1/11,3:00:00,11,���쐼,2.4,-20.1,82.9,0,0,13,���k��,3.9,40,,
2017/1/11,4:00:00,12,��,2.8,-21.4,85,0,0,12,��,4.8,29,,
2017/1/11,5:00:00,12,��,3.9,-19.5,85.3,0,0,12,��,5.8,49,,
2017/1/11,6:00:00,13,���k��,2.6,-20.3,84.7,0,0.01,8,��,5.1,5,,
2017/1/11,7:00:00,12,��,2.5,-24.6,79.5,0,0.01,12,��,5.6,46,,
2017/1/11,8:00:00,11,���쐼,2.5,-20.5,85.8,0,0.11,10,�쐼,4.4,9,,
2017/1/11,9:00:00,12,��,2.7,-10.1,50.2,0,0.29,13,���k��,4.6,39,,
2017/1/11,10:00:00,12,��,4.7,-6.6,25.7,0,0.44,12,��,7.5,57,,
2017/1/11,11:00:00,12,��,4.8,-6.2,23,0,0.53,12,��,8.8,57,,
2017/1/11,12:00:00,11,���쐼,5.3,-6.7,26.1,0,0.56,10,�쐼,9.8,18,,
2017/1/11,13:00:00,12,��,4.7,-6.4,25.3,0,0.53,11,���쐼,9.7,17,,
2017/1/11,14:00:00,12,��,4.8,-6.5,24,0,0.45,12,��,7.9,9,,
2017/1/11,15:00:00,10,�쐼,3.8,-8,28.7,0,0.24,11,���쐼,9.2,15,,
2017/1/11,16:00:00,11,���쐼,3.2,-9.3,33.2,0,0.09,9,��쐼,8.3,13,,
2017/1/11,17:00:00,11,���쐼,1.7,-12.3,36.1,0,0.01,10,�쐼,4.7,13,,
2017/1/11,18:00:00,11,���쐼,1.8,-14.9,45.7,0,0,11,���쐼,4.9,44,,
2017/1/11,19:00:00,14,�k��,0.7,-15.2,44.2,0,0,12,��,3.7,42,,
2017/1/11,20:00:00,1,�k�k��,0.3,-16.9,47.4,0,0,1,�k�k��,2,8,,
2017/1/11,21:00:00,11,���쐼,2.1,-22.7,51.7,0,0,12,��,4.1,14,,
2017/1/11,22:00:00,13,���k��,0.3,-23.9,60.1,0,0,10,�쐼,4.5,9,,
2017/1/11,23:00:00,12,��,1.7,-22.8,67.2,0,0,10,�쐼,3.5,36,,
2017/1/11,0:00:00,10,�쐼,3,-23.1,71,0,0,10,�쐼,5.4,50,,
2017/1/12,1:00:00,13,���k��,1.5,-20.7,70.7,0,0,3,���k��,6.2,19,,
2017/1/12,2:00:00,12,��,0.9,-20.7,70.6,0,0,9,��쐼,6.2,20,,
2017/1/12,3:00:00,11,���쐼,8,-8.2,51.9,0,0,10,�쐼,11.8,53,,
2017/1/12,4:00:00,11,���쐼,4.6,-8.8,37.5,0,0,11,���쐼,11,59,,
2017/1/12,5:00:00,11,���쐼,5,-9,39.8,0,0,11,���쐼,10.9,19,,
2017/1/12,6:00:00,11,���쐼,1.9,-13.4,35.7,0,0,11,���쐼,8.9,5,,
2017/1/12,7:00:00,10,�쐼,4.3,-9.4,43.4,0,0.01,10,�쐼,8.4,50,,
2017/1/12,8:00:00,2,�k��,1.3,-12.6,41.5,0,0.09,12,��,4.8,16,,
2017/1/12,9:00:00,1,�k�k��,1.8,-10.5,32.4,0,0.15,12,��,7.4,26,,
2017/1/12,10:00:00,3,���k��,1.6,-9,27.4,0,0.4,11,���쐼,9.9,40,,
2017/1/12,11:00:00,12,��,8.4,-7.2,29.3,0,0.53,11,���쐼,12.9,58,,
2017/1/12,12:00:00,11,���쐼,6.4,-7,30.6,0,0.56,7,��쓌,11.3,10,,
2017/1/12,13:00:00,12,��,4.8,-6.3,23.5,0,0.53,11,���쐼,8.8,50,,
2017/1/12,14:00:00,12,��,2.1,-7.1,24.5,0,0.45,12,��,9,4,,
2017/1/12,15:00:00,11,���쐼,2,-6,26.3,0,0.3,12,��,7.3,32,,
2017/1/12,16:00:00,11,���쐼,2.3,-9.1,25.2,0,0.12,12,��,3.4,4,,
2017/1/12,17:00:00,11,���쐼,1,-15.9,37.6,0,0.01,12,��,2.5,8,,
2017/1/12,18:00:00,12,��,1.1,-18.2,41.8,0,0,4,��,2.3,26,,
2017/1/12,19:00:00,12,��,1.5,-19.9,57.3,0,0,12,��,3.2,59,,
2017/1/12,20:00:00,11,���쐼,2.3,-20,63.7,0,0,12,��,3.5,51,,
2017/1/12,21:00:00,11,���쐼,2.7,-22.2,66.9,0,0,12,��,4.2,8,,
2017/1/12,22:00:00,12,��,1.5,-20,72.9,0,0,10,�쐼,4.5,1,,
2017/1/12,23:00:00,10,�쐼,2.6,-18.5,68,0,0,12,��,6.4,24,,
2017/1/12,0:00:00,11,���쐼,2,-18.1,66.8,0,0,9,��쐼,5.2,6,,
2017/1/13,1:00:00,12,��,2,-16,57.5,0,0,7,��쓌,4.9,1,,
2017/1/13,2:00:00,12,��,2.5,-19.7,61.6,0,0,8,��,4.7,25,,
2017/1/13,3:00:00,11,���쐼,2.5,-19.3,67.6,0,0,11,���쐼,4.1,55,,
2017/1/13,4:00:00,10,�쐼,2.2,-20.2,65.6,0,0,9,��쐼,3.8,41,,
2017/1/13,5:00:00,12,��,2,-16.7,65.5,0,0,1,�k�k��,4.7,45,,
2017/1/13,6:00:00,12,��,2.7,-16.7,68.3,0,0.01,12,��,5.2,58,,
2017/1/13,7:00:00,12,��,2.4,-15.8,70,0,0.01,13,���k��,5.4,36,,
2017/1/13,8:00:00,11,���쐼,3.3,-14.7,62.2,0,0.09,6,�쓌,5.7,44,,
2017/1/13,9:00:00,12,��,3,-12.9,52.2,0,0.23,13,���k��,5.6,18,,
2017/1/13,10:00:00,12,��,3.3,-9.9,49.8,0,0.35,13,���k��,6,21,,
2017/1/13,11:00:00,14,�k��,1.4,-7.5,36.3,0,0.46,11,���쐼,5.4,5,,
2017/1/13,12:00:00,3,���k��,0.9,-5,26.9,0,0.52,13,���k��,3.1,8,,
2017/1/13,13:00:00,3,���k��,0.6,-5.2,20.4,0,0.52,5,���쓌,2.2,5,,
2017/1/13,14:00:00,3,���k��,0.3,-4.9,22.4,0,0.45,2,�k��,2.3,28,,
2017/1/13,15:00:00,14,�k��,1.7,-5.7,26.3,0,0.31,16,�k,6,31,,
2017/1/13,16:00:00,14,�k��,1.1,-7.8,30.1,0,0.13,12,��,3.1,16,,
2017/1/13,17:00:00,12,��,2.4,-12.2,43.9,0,0.01,11,���쐼,3.4,47,,
2017/1/13,18:00:00,11,���쐼,1.9,-14.7,55.4,0,0,14,�k��,3.2,15,,
2017/1/13,19:00:00,12,��,1.5,-15.7,64.2,0,0,11,���쐼,3.2,53,,
2017/1/13,20:00:00,10,�쐼,2.9,-15.3,65,0,0,13,���k��,4.2,59,,
2017/1/13,21:00:00,11,���쐼,3.3,-15.8,66.1,0,0,11,���쐼,4.9,39,,
2017/1/13,22:00:00,10,�쐼,3.8,-14,58.9,0,0,12,��,5.5,46,,
2017/1/13,23:00:00,12,��,1.6,-18.2,61.2,0,0,9,��쐼,4.4,0,,
2017/1/13,0:00:00,12,��,2.1,-15.3,72,0,0,8,��,4.8,43,,
2017/1/14,1:00:00,11,���쐼,3.2,-14.1,65.3,0,0,13,���k��,4.9,46,,
2017/1/14,2:00:00,12,��,3.3,-13.9,63.6,0,0,2,�k��,5.5,47,,
2017/1/14,3:00:00,12,��,0.4,-16.7,62.5,0,0,6,�쓌,4.2,3,,
2017/1/14,4:00:00,13,���k��,1.2,-16.6,68.6,0,0,2,�k��,2.9,26,,
2017/1/14,5:00:00,13,���k��,1.8,-14.8,72.2,0,0,11,���쐼,4.2,39,,
2017/1/14,6:00:00,12,��,3.5,-14.8,69.9,0,0.01,3,���k��,5.3,45,,
2017/1/14,7:00:00,12,��,1.7,-17,62.1,0,0.01,12,��,4.6,0,,
2017/1/14,8:00:00,14,�k��,1,-17.1,61,0,0.09,12,��,4.2,6,,
2017/1/14,9:00:00,12,��,0.7,-11.9,58.8,0,0.21,2,�k��,2.8,33,,
2017/1/14,10:00:00,13,���k��,1.8,-7.8,35.2,0,0.4,13,���k��,4.3,57,,
2017/1/14,11:00:00,12,��,2.6,-6.8,37.9,0,0.38,13,���k��,5,26,,
2017/1/14,12:00:00,13,���k��,2.5,-5.7,36.6,0,0.4,13,���k��,5.2,33,,
2017/1/14,13:00:00,14,�k��,2.5,-4.8,27.4,0,0.53,1,�k�k��,4.8,59,,
2017/1/14,14:00:00,3,���k��,1.3,-4.1,21.3,0,0.45,1,�k�k��,2.5,0,,
2017/1/14,15:00:00,4,��,0.4,-6,28.6,0,0.2,2,�k��,1.9,31,,
2017/1/14,16:00:00,12,��,1.1,-7.7,35.4,0,0.05,7,��쓌,1.7,59,,
2017/1/14,17:00:00,14,�k��,0.7,-12,48.6,0,0.01,1,�k�k��,2.3,21,,
2017/1/14,18:00:00,12,��,2.9,-8.8,56.5,0,0,10,�쐼,4.5,55,,
2017/1/14,19:00:00,11,���쐼,3.1,-9,57.5,0,0,10,�쐼,5.1,55,,
2017/1/14,20:00:00,11,���쐼,3.8,-10.2,61.8,0,0,13,���k��,5.4,53,,
2017/1/14,21:00:00,10,�쐼,3.4,-11.1,61.2,0,0,12,��,5.6,9,,
2017/1/14,22:00:00,10,�쐼,3.3,-10.4,61.6,0,0,8,��,5.6,11,,
2017/1/14,23:00:00,11,���쐼,3.9,-10.3,58.3,0,0,12,��,5.9,59,,
2017/1/14,0:00:00,11,���쐼,4.1,-11.2,58.8,0,0,13,���k��,6.2,47,,
2017/1/15,1:00:00,11,���쐼,4,-10.4,57.2,0,0,4,��,7.2,47,,
2017/1/15,2:00:00,13,���k��,1.9,-11.7,55.7,0,0,10,�쐼,6.2,2,,
2017/1/15,3:00:00,11,���쐼,3.8,-12.8,63.9,0,0,12,��,5,57,,
2017/1/15,4:00:00,9,��쐼,5.3,-13.1,66.3,0,0,2,�k��,8,34,,
2017/1/15,5:00:00,12,��,2.6,-14.2,66.1,0,0,8,��,7.2,0,,
2017/1/15,6:00:00,11,���쐼,4.2,-13.4,68.9,0,0.01,8,��,6.6,24,,
2017/1/15,7:00:00,10,�쐼,2.4,-16.9,64,0,0.01,7,��쓌,4.7,0,,
2017/1/15,8:00:00,11,���쐼,3.4,-12.9,59.5,0,0.1,11,���쐼,4.9,56,,
2017/1/15,9:00:00,12,��,1.8,-11,39.3,0,0.27,12,��,7.2,26,,
2017/1/15,10:00:00,10,�쐼,0.3,-7.9,24.7,0,0.42,8,��,8,54,,
2017/1/15,11:00:00,2,�k��,0.5,-3.9,16,0,0.53,3,���k��,1.2,59,,
2017/1/15,12:00:00,16,�É�,0,-1.5,18,0,0.56,3,���k��,2,1,,
2017/1/15,13:00:00,16,�É�,0,-1.3,14.1,0,0.54,6,�쓌,1.2,30,,
2017/1/15,14:00:00,9,��쐼,1.9,-2.1,14.7,0,0.45,9,��쐼,3.1,58,,
2017/1/15,15:00:00,11,���쐼,1,-3.2,22.8,0,0.31,10,�쐼,3.1,4,,
2017/1/15,16:00:00,11,���쐼,1.7,-5.4,28.3,0,0.13,11,���쐼,2.5,58,,
2017/1/15,17:00:00,16,�k,0.9,-6.7,56.4,0,0.01,11,���쐼,3.6,28,,
2017/1/15,18:00:00,12,��,2.8,-6.8,64.3,0,0,8,��,4,53,,
2017/1/15,19:00:00,12,��,2.6,-8.3,69.4,0,0,11,���쐼,4.1,53,,
2017/1/15,20:00:00,11,���쐼,3.8,-9.3,75.7,0,0,4,��,5.8,59,,
2017/1/15,21:00:00,12,��,4.1,-6.8,65.6,0,0,10,�쐼,6.4,1,,
2017/1/15,22:00:00,10,�쐼,3.9,-8.4,64,0,0,7,��쓌,6.4,0,,
2017/1/15,23:00:00,11,���쐼,3.7,-6.7,61.8,0,0,12,��,5.9,59,,
2017/1/15,0:00:00,11,���쐼,3.5,-5.9,60.1,0,0,7,��쓌,5.4,0,,
2017/1/16,1:00:00,10,�쐼,2.8,-5.9,62.6,0,0,11,���쐼,4.9,3,,
2017/1/16,2:00:00,11,���쐼,3,-5.4,84,0,0,9,��쐼,5.9,17,,
2017/1/16,3:00:00,12,��,3.8,-5,91.8,0,0,12,��,5.8,51,,
2017/1/16,4:00:00,12,��,5.5,-3.5,94.2,0,0,11,���쐼,8.7,58,,
2017/1/16,5:00:00,14,�k��,5.9,-2.1,89.1,0,0,14,�k��,10,59,,
2017/1/16,6:00:00,16,�k,5.4,-1.1,92,0,0,14,�k��,10,10,,
2017/1/16,7:00:00,1,�k�k��,5.7,-0.6,87,0,0.01,1,�k�k��,10.3,18,,
2017/1/16,8:00:00,16,�k,5.7,-0.6,85.4,0,0.03,1,�k�k��,11.4,32,,
2017/1/16,9:00:00,1,�k�k��,6.8,-0.5,88.9,0,0.08,15,�k�k��,12.7,58,,
2017/1/16,10:00:00,1,�k�k��,5.6,0.9,73.6,0,0.16,2,�k��,10.7,35,,
2017/1/16,11:00:00,16,�k,3.7,0.8,73.1,0.5,0.21,1,�k�k��,10.2,4,,
2017/1/16,12:00:00,16,�k,3.7,0.9,72.5,0,0.24,1,�k�k��,7.4,47,,
2017/1/16,13:00:00,16,�k,3.3,1.6,65.2,0,0.24,15,�k�k��,7.4,0,,
2017/1/16,14:00:00,1,�k�k��,5.5,1.6,65.1,0,0.2,15,�k�k��,9.5,10,,
2017/1/16,15:00:00,16,�k,5.6,1.1,64.6,0,0.1,1,�k�k��,10.5,39,,
2017/1/16,16:00:00,16,�k,5.3,0.9,62.6,0,0.05,1,�k�k��,10.1,8,,
2017/1/16,17:00:00,14,�k��,4.2,0.2,69.3,0,0.01,15,�k�k��,10.1,19,,
2017/1/16,18:00:00,14,�k��,3.6,-0.5,69.4,0,0,15,�k�k��,8.3,19,,
2017/1/16,19:00:00,14,�k��,4.2,-0.9,70.4,0,0,14,�k��,10,48,,
2017/1/16,20:00:00,15,�k�k��,4.1,-1.5,68.6,0,0,14,�k��,9.2,47,,
2017/1/16,21:00:00,14,�k��,3.3,-1.9,70.6,0,0,14,�k��,8.6,10,,
2017/1/16,22:00:00,13,���k��,3.2,-2.9,70.8,0,0,7,��쓌,6.8,42,,
2017/1/16,23:00:00,12,��,3.5,-3.3,72.7,0,0,13,���k��,5.8,7,,
2017/1/16,0:00:00,12,��,2.9,-3.9,73.1,0,0,13,���k��,4.8,4,,
2017/1/17,1:00:00,12,��,2.9,-4.4,74.4,0,0,16,�k,5.3,0,,
2017/1/17,2:00:00,13,���k��,3.5,-4.6,70.1,0,0,10,�쐼,5.6,7,,